STARLINK-31973, 59943

Orbit data source: Space-Track

STARLINK-31973, 59943 is a payload satellite owned by SpaceX/Seattle (US) in LEO that was launched on Sat, 01 Jun 2024 UTC via an FALCON 9 launch vehicle from the Air Force Eastern Test Range (AFETR). Payload-class satellites include a variety of spacecraft equipped with specific instruments for various scientific and technological missions. These include communications satellites like Starlink; space stations such as the ISS; scientific satellites like the Hubble; Earth observation satellites from companies like Planet Labs, Umbra, and HawkEye 360; GPS; miniature CubeSats for education and research; and military/defense satellites.

Loading next visibility...
Identifier
59943, 2024-106X
Orbit
LEO
Country
Flag of USUS
Related business
Manufacturer
SpaceX/Seattle
Mission
Operational Commercial Communications
Bus & Motor
STARLINK V2M, Unknown motor
Mass
730 kg wet, ~700 kg dry
Launch date (UTC)
2024-06-01 (2 years ago)
Launch vehicle
FALCON 9
Launch site
Air Force Eastern Test Range (AFETR)
Object type
Payload
Rocket body
Debris
Shape & HBR
Box + 2 Pan, 17.7 m
Radar Cross Section
33.884 m², Large (>1 m²)

Expand to show TLE details & history
Last TLE update: 9 hours ago

TLE from 9 hours ago
0 STARLINK-31973
1 59943U 24106X   26125.07360467  .00000232  00000-0  17953-4 0  9998
2 59943  43.0044  14.3007 0001059 276.8864  83.1867 15.27574778109149
Epoch: 2026-05-05T01:45Z
TLE epoch observation values (Epoch: 2026-05-05T01:45:59.443Z)
Latitude
-0.00003°
Longitude
124.84931°
Altitude
482.755 km
Speed
7.626 km/s
True Right ascension
00h 57m 12s
True Declination
0° 00' 00"
Sunlit
Object was in daylight at epoch
Visualization orbit readout
Latitude
Unknown
Longitude
Unknown
Altitude
Unknown
Speed
Unknown
Apparent Right ascension
Unknown
Apparent Declination
Unknown
Sunlit
N/A
Visualization observer readout
Local Sidereal Time
18:54:04
Azimuth
Unknown
Elevation
Unknown
Doppler factor
Unknown
Orbital elements
Apogee altitude
485.736 km
Perigee altitude
484.282 km
Semi-major axis
6,863.146 km
Eccentricity
0.00011
Inclination
43.0044°
RAAN
14.3007°
Arg. of periapsis
276.8864°
True anomaly
83.19875°
Mean anomaly
83.1867°
Eccentric anomaly
83.19272°
Mean motion
3.81732 °/min
Orbital period
94.31 mins
BSTAR
0.000017953
Loading maneuver chart data...
Computing Atmospheric mass density...
Loading historical data...
Loading historical data...
Loading historical data...
Loading historical data...
Loading historical data...
Loading historical data...
Loading historical data...

Documentation

Showing up to 5 results
|